Weather History for Savoonga, AK

Change the Weather History Date:

Thursday, February 27, 2014

  Actual Average Record
Temperature  
Mean Temperature 26 °F -  
Max Temperature 30 °F 7 °F 33 °F (2009)
Min Temperature 21 °F 0 °F -23 °F (1999)
Degree Days  
Heating Degree Days 40    
Moisture  
Dew Point 24 °F    
Average Humidity 90    
Maximum Humidity 100    
Minimum Humidity 80    
Precipitation  
Precipitation 0.00 in - - ()
Sea Level Pressure  
Sea Level Pressure 29.55 in    
Wind  
Wind Speed 12 mph (East)    
Max Wind Speed 21 mph    
Max Gust Speed -    
Visibility 10 miles    
Events      
Averages and records for this station are not official NWS values.
T = Trace of Precipitation, MM = Missing Value Source: NWS Daily Summary

Daily Weather History Graph

Daily Weather History Graph

Search for Another Location

Airport:

Trip Planner

Search our weather history database for the weather conditions in past years. The results will help you decide how hot, cold, wet, or windy it might be!

Date:

Astronomy

Feb. 27, 2014 Rise Set
Actual Time 9:34 AM AKST 7:36 PM AKST
Civil Twilight 8:46 AM AKST 8:24 PM AKST
Nautical Twilight 7:52 AM AKST 9:18 PM AKST
Astronomical Twilight 6:57 AM AKST 10:14 PM AKST
Moon 8:38 AM AKST (2/27) 6:03 PM AKST (2/27)
Length of Visible Light 11h 37m
Length of Day
10h 02m
Waning Crescent, 3% of the Moon is Illuminated
Feb 27
Waning Crescent
Feb 28
New
Mar 8
First Quarter
Mar 16
Full
Mar 23
Last Quarter

Hourly Weather History & Observations

Time (AKST) Temp. Windchill Dew Point Humidity Pressure Visibility Wind Dir Wind Speed Gust Speed Precip Events Conditions
12:16 AM 24.8 °F 16.1 °F 19.4 °F 80% 29.58 in 10.0 mi East 8.1 mph - N/A   Overcast
12:36 AM 24.8 °F 16.1 °F 19.4 °F 80% 29.57 in 10.0 mi East 8.1 mph - N/A   Overcast
12:56 AM 24.8 °F 16.9 °F 19.4 °F 80% 29.57 in 10.0 mi East 6.9 mph - N/A   Overcast
1:16 AM 23.0 °F 14.7 °F 19.4 °F 86% 29.57 in 10.0 mi ESE 6.9 mph - N/A   Mostly Cloudy
1:36 AM 23.0 °F 13.9 °F 19.4 °F 86% 29.57 in 10.0 mi East 8.1 mph - N/A   Overcast
1:56 AM 23.0 °F 13.9 °F 19.4 °F 86% 29.57 in 10.0 mi ESE 8.1 mph - N/A   Overcast
2:16 AM 23.0 °F 13.9 °F 19.4 °F 86% 29.56 in 10.0 mi East 8.1 mph - N/A   Overcast
2:36 AM 24.8 °F 14.6 °F 19.4 °F 80% 29.57 in 10.0 mi East 10.4 mph - N/A   Overcast
2:56 AM 23.0 °F 11.7 °F 19.4 °F 86% 29.55 in 10.0 mi ENE 11.5 mph - N/A   Mostly Cloudy
3:16 AM 23.0 °F 11.1 °F 21.2 °F 93% 29.55 in 10.0 mi East 12.7 mph - N/A   Mostly Cloudy
3:36 AM 24.8 °F 14.6 °F 21.2 °F 86% 29.55 in 10.0 mi ESE 10.4 mph - N/A   Overcast
3:56 AM 24.8 °F 14.0 °F 21.2 °F 86% 29.55 in 10.0 mi ESE 11.5 mph - N/A   Overcast
4:16 AM 24.8 °F 13.4 °F 21.2 °F 86% 29.55 in 10.0 mi East 12.7 mph - N/A   Overcast
4:36 AM 24.8 °F 14.6 °F 21.2 °F 86% 29.55 in 10.0 mi ESE 10.4 mph - N/A   Overcast
4:56 AM 24.8 °F 15.3 °F 21.2 °F 86% 29.55 in 10.0 mi East 9.2 mph - N/A   Overcast
5:16 AM 23.0 °F 13.1 °F 21.2 °F 93% 29.54 in 10.0 mi East 9.2 mph - N/A   Overcast
5:36 AM 21.2 °F 11.7 °F 17.6 °F 86% 29.54 in 10.0 mi ENE 8.1 mph - N/A   Mostly Cloudy
5:56 AM 24.8 °F 14.0 °F 19.4 °F 80% 29.53 in 10.0 mi East 11.5 mph - N/A   Mostly Cloudy
6:16 AM 24.8 °F 13.4 °F 21.2 °F 86% 29.53 in 10.0 mi East 12.7 mph - N/A   Overcast
6:36 AM 23.0 °F 10.1 °F 19.4 °F 86% 29.53 in 10.0 mi East 15.0 mph - N/A   Overcast
6:56 AM 24.8 °F 12.9 °F 23.0 °F 93% 29.54 in 10.0 mi East 13.8 mph - N/A   Overcast
7:16 AM 24.8 °F 12.4 °F 21.2 °F 86% 29.54 in 10.0 mi East 15.0 mph - N/A   Overcast
7:36 AM 24.8 °F 12.4 °F 21.2 °F 86% 29.54 in 10.0 mi East 15.0 mph - N/A   Overcast
7:56 AM 24.8 °F 11.5 °F 21.2 °F 86% 29.53 in 10.0 mi East 17.3 mph - N/A   Overcast
8:16 AM 24.8 °F 12.4 °F 24.8 °F 100% 29.53 in 10.0 mi East 15.0 mph - N/A   Overcast
8:36 AM 24.8 °F 11.9 °F 21.2 °F 86% 29.54 in 10.0 mi East 16.1 mph - N/A   Overcast
8:56 AM 26.6 °F 13.8 °F 21.2 °F 80% 29.54 in 4.0 mi East 17.3 mph - N/A   Overcast
9:16 AM 26.6 °F 14.3 °F 24.8 °F 93% 29.54 in 4.0 mi East 16.1 mph - N/A   Overcast
9:36 AM 24.8 °F 12.4 °F 23.0 °F 93% 29.53 in 5.0 mi East 15.0 mph - N/A   Mostly Cloudy
9:56 AM 24.8 °F 12.9 °F 23.0 °F 93% 29.54 in 10.0 mi East 13.8 mph - N/A   Overcast
10:16 AM 24.8 °F 13.4 °F 23.0 °F 93% 29.55 in 10.0 mi East 12.7 mph - N/A   Overcast
10:36 AM 24.8 °F 12.4 °F 24.8 °F 100% 29.54 in 10.0 mi East 15.0 mph - N/A   Mostly Cloudy
10:56 AM 24.8 °F 12.9 °F 23.0 °F 93% 29.55 in 10.0 mi East 13.8 mph - N/A   Partly Cloudy
11:16 AM 26.6 °F 13.8 °F 23.0 °F 86% 29.55 in 10.0 mi ESE 17.3 mph - N/A   Mostly Cloudy
11:36 AM 26.6 °F 16.8 °F 23.0 °F 86% 29.56 in 10.0 mi East 10.4 mph - N/A   Overcast
11:56 AM 26.6 °F 14.3 °F 24.8 °F 93% 29.55 in 10.0 mi East 16.1 mph - N/A   Overcast
12:36 PM 26.6 °F 13.1 °F 23.0 °F 86% 29.55 in 10.0 mi East 19.6 mph - N/A   Overcast
12:56 PM 26.6 °F 13.8 °F 24.8 °F 93% 29.55 in 10.0 mi East 17.3 mph - N/A   Overcast
1:16 PM 26.6 °F 12.7 °F 23.0 °F 86% 29.55 in 10.0 mi East 20.7 mph - N/A   Overcast
1:36 PM 26.6 °F 13.8 °F 24.8 °F 93% 29.56 in 10.0 mi East 17.3 mph - N/A   Overcast
1:56 PM 26.6 °F 13.4 °F 24.8 °F 93% 29.55 in 10.0 mi East 18.4 mph - N/A   Overcast
2:16 PM 26.6 °F 14.3 °F 24.8 °F 93% 29.55 in 10.0 mi East 16.1 mph - N/A   Overcast
2:36 PM 28.4 °F 16.2 °F 24.8 °F 86% 29.56 in 10.0 mi East 17.3 mph - N/A   Overcast
2:56 PM 28.4 °F 16.6 °F 26.6 °F 93% 29.55 in 10.0 mi East 16.1 mph - N/A   Overcast
3:16 PM 28.4 °F 15.8 °F 26.6 °F 93% 29.55 in 10.0 mi East 18.4 mph - N/A   Overcast
3:36 PM 28.4 °F 17.0 °F 24.8 °F 86% 29.56 in 10.0 mi East 15.0 mph - N/A   Overcast
3:56 PM 28.4 °F 16.6 °F 24.8 °F 86% 29.56 in 10.0 mi East 16.1 mph - N/A   Overcast
4:16 PM 28.4 °F 17.0 °F 26.6 °F 93% 29.55 in 10.0 mi East 15.0 mph - N/A   Overcast
4:36 PM 28.4 °F 17.0 °F 26.6 °F 93% 29.55 in 10.0 mi East 15.0 mph - N/A   Overcast
4:56 PM 28.4 °F 16.6 °F 26.6 °F 93% 29.55 in 10.0 mi East 16.1 mph - N/A   Overcast
5:16 PM 28.4 °F 17.0 °F 26.6 °F 93% 29.54 in 10.0 mi East 15.0 mph - N/A   Mostly Cloudy
5:36 PM 28.4 °F 17.5 °F 26.6 °F 93% 29.54 in 10.0 mi East 13.8 mph - N/A   Mostly Cloudy
5:56 PM 28.4 °F 18.0 °F 26.6 °F 93% 29.55 in 10.0 mi East 12.7 mph - N/A   Mostly Cloudy
6:16 PM 28.4 °F 17.5 °F 26.6 °F 93% 29.55 in 10.0 mi East 13.8 mph - N/A   Mostly Cloudy
6:36 PM 28.4 °F 17.0 °F 26.6 °F 93% 29.55 in 10.0 mi East 15.0 mph - N/A   Overcast
6:56 PM 28.4 °F 17.0 °F 26.6 °F 93% 29.55 in 10.0 mi East 15.0 mph - N/A   Overcast
7:16 PM 30.2 °F 18.9 °F 28.4 °F 93% 29.55 in 10.0 mi East 16.1 mph - N/A   Overcast
7:36 PM 30.2 °F 18.5 °F 28.4 °F 93% 29.55 in 10.0 mi East 17.3 mph - N/A   Overcast
7:56 PM 30.2 °F 18.5 °F 28.4 °F 93% 29.55 in 10.0 mi East 17.3 mph - N/A   Overcast
8:16 PM 30.2 °F 19.3 °F 28.4 °F 93% 29.55 in 10.0 mi East 15.0 mph - N/A   Overcast
8:36 PM 30.2 °F 18.5 °F 28.4 °F 93% 29.55 in 10.0 mi East 17.3 mph - N/A   Overcast
8:56 PM 30.2 °F 18.1 °F 28.4 °F 93% 29.55 in 10.0 mi East 18.4 mph - N/A   Overcast
9:16 PM 30.2 °F 18.5 °F 28.4 °F 93% 29.55 in 10.0 mi East 17.3 mph - N/A   Overcast
9:36 PM 30.2 °F 18.5 °F 28.4 °F 93% 29.55 in 10.0 mi East 17.3 mph - N/A   Overcast
9:56 PM 30.2 °F 18.9 °F 28.4 °F 93% 29.55 in 10.0 mi East 16.1 mph - N/A   Overcast
10:16 PM 30.2 °F 19.8 °F 28.4 °F 93% 29.55 in 10.0 mi East 13.8 mph - N/A   Overcast
10:36 PM 30.2 °F 19.8 °F 28.4 °F 93% 29.54 in 10.0 mi East 13.8 mph - N/A   Overcast
10:56 PM 30.2 °F 19.3 °F 28.4 °F 93% 29.54 in 10.0 mi East 15.0 mph - N/A   Overcast
11:16 PM 30.2 °F 19.8 °F 28.4 °F 93% 29.54 in 10.0 mi East 13.8 mph - N/A   Overcast
11:36 PM 30.2 °F 18.9 °F 30.2 °F 100% 29.53 in 9.0 mi East 16.1 mph - N/A   Overcast
11:56 PM 30.2 °F 18.9 °F 30.2 °F 100% 29.53 in 10.0 mi East 16.1 mph - N/A   Overcast